#timestamp,LO_Frequency,Hit,StdDev 
1459634415.5,286047004.7,N
1459634435.4,286047001.7,N
1459634455.2,286047003.9,N
1459634475.0,286047002.6,N
1459634475.9,286047002.6,N
1459634495.7,286047002.5,N
1459634515.6,286047002.0,N
1459634535.4,286047002.1,N
1459634555.2,286047000.1,N
1459634575.1,286047000.8,N
1459634576.0,286047000.8,N
1459634595.8,286047002.3,N
1459634615.6,286047002.5,N
1459634635.5,286047001.4,N
1459634655.3,286047002.6,N
1459634675.1,286047001.5,N
1459634695.9,286047000.9,N
1459634715.7,286046998.6,N
1459634735.5,286046998.1,N
1459634755.4,286046998.1,N
1459634775.2,286046996.8,N
1459634795.0,286046998.1,N
1459634795.9,286046998.1,N
1459634815.8,286047001.2,N
1459634835.6,286046999.9,N
1459634855.4,286047002.6,N
1459634875.2,286047002.7,N
1459634895.1,286047002.2,N
1459634896.0,286047002.2,N
1459634915.8,286047002.5,N
1459634935.6,286046996.5,N
1459634955.5,286046999.6,N
1459634975.3,286046999.3,N
1459634995.1,286047001.1,N
1459635015.9,286046998.5,N
1459635035.7,286047000.9,N
1459635055.5,286046998.5,N
1459635075.4,286047001.1,N
1459635095.2,286046998.5,N
1459635115.0,286047001.2,N
1459635115.9,286047001.2,N
1459635135.8,286047000.6,N
1459635155.6,286047002.4,N
1459635175.4,286047002.6,N
1459635195.3,286047000.9,N
1459635215.1,286047003.0,N
1459635216.0,286047003.0,N
1459635235.8,286047003.1,N
1459635255.6,286047003.2,N
1459635275.5,286047004.0,N
1459635295.3,286047001.5,N
1459635315.1,286047003.6,N
1459635335.9,286047003.6,N
1459635355.7,286047003.8,N
1459635375.5,286047003.2,N
1459635395.4,286047003.6,N
1459635415.2,286047006.0,Y
1459635435.0,286046999.8,P
1459635435.9,286046999.8,N
1459635455.8,286047001.7,N
1459635475.6,286047002.8,N
1459635495.4,286047004.0,Y
1459635515.3,286046999.2,P
1459635535.1,286047000.4,N
1459635555.8,286046999.3,N
1459635575.7,286046998.8,N
1459635595.5,286047000.3,N
1459635615.3,286047002.7,Y
1459635635.2,286047003.4,P
1459635655.9,286047001.0,N
1459635675.7,286046999.2,N
1459635695.6,286046997.1,N
1459635715.4,286046998.4,N
1459635735.2,286046998.2,N
1459635755.1,286046999.3,N
1459635756.0,286046999.3,N
1459635775.8,286046999.4,N
1459635795.6,286047000.5,N
1459635815.5,286047002.8,N
1459635835.3,286047002.3,N
1459635855.1,286047002.3,N
1459635875.8,286047000.5,N
1459635895.7,286046996.8,N
1459635915.5,286046998.9,N
1459635935.3,286046998.3,N
1459635955.2,286046996.7,N
1459635975.9,286046999.4,N
1459635995.7,286046998.8,N
1459636015.6,286046999.4,N
1459636035.4,286046997.9,N
1459636055.2,286046993.4,Y
1459636075.1,286046996.0,P
1459636076.0,286046996.0,N
1459636095.8,286046993.3,P
1459636115.6,286046995.3,N
1459636135.5,286046996.3,N
1459636155.3,286046997.2,N
1459636175.1,286046997.0,N
1459636195.9,286046995.0,Y
1459636215.7,286047000.9,P
1459636235.5,286047000.4,N
1459636255.4,286047000.4,N
1459636275.2,286046995.7,N
1459636295.0,286046993.6,N
1459636295.9,286046993.6,N
1459636315.8,286046993.2,N
1459636335.6,286046987.4,Y
1459636355.4,286046993.2,P
1459636375.3,286046988.6,P
1459636395.1,286046987.6,P
1459636396.0,286046987.6,Y
1459636415.8,286046996.8,P
1459636435.7,286046995.0,N
1459636455.5,286046993.7,N
1459636475.3,286046994.1,Y
1459636495.2,286047000.4,P
1459636515.9,286046999.8,N
1459636535.7,286047002.5,N
1459636555.6,286047002.1,N
1459636575.4,286047004.3,N
1459636595.2,286047005.6,N
1459636615.0,286047003.8,N
1459636616.0,286047003.8,N
1459636635.8,286047005.0,N
1459636655.6,286047006.2,N
1459636675.4,286047006.2,N
1459636695.3,286047007.3,N
1459636715.1,286047004.5,N
1459636735.8,286047007.3,N
1459636755.7,286047007.4,N
1459636775.5,286047006.2,N
1459636795.3,286047006.1,N
1459636815.2,286047010.5,Y
1459636835.9,286047005.4,P
1459636855.7,286047007.3,P
1459636875.6,286047010.8,P
1459636895.4,286047012.2,Y
1459636915.2,286047004.8,P
1459636935.1,286047004.9,P
1459636936.0,286047004.9,P
1459636955.8,286047005.4,Y
1459636975.6,286047002.6,P
1459636995.5,286047002.9,N
1459637015.3,286047003.3,N
1459637035.1,286047005.7,Y
1459637055.9,286047003.2,P
1459637075.7,286047002.2,P
1459637095.5,286046997.0,P
1459637115.4,286046997.0,N
1459637135.2,286046999.0,N
1459637155.0,286046997.1,N
1459637155.9,286046997.1,N
1459637175.8,286046995.8,N
1459637195.6,286046994.5,N
1459637215.4,286046994.4,N
1459637235.3,286046992.0,N
1459637255.1,286046992.0,N
1459637256.0,286046992.0,N
1459637275.8,286046990.4,N
1459637295.6,286046989.5,N
1459637315.5,286046985.3,Y
1459637335.3,286046992.8,P
1459637355.1,286046991.5,P
1459637375.9,286046993.0,P
1459637395.7,286046992.6,Y
1459637415.6,286046996.7,P
1459637435.4,286046999.9,N
1459637455.2,286047002.4,N
1459637475.0,286047001.5,N
1459637475.9,286047001.5,N
1459637495.8,286047002.1,N
1459637515.6,286047005.6,N
1459637535.4,286047002.0,N
1459637555.3,286047003.0,N
1459637575.1,286047003.4,N
1459637595.8,286047003.1,N
1459637615.7,286047003.3,N
1459637635.5,286047004.0,N
1459637655.3,286047005.1,N
1459637675.2,286047009.2,Y
1459637695.9,286047006.0,P
1459637715.7,286047006.6,P
1459637735.6,286047006.9,P
1459637755.4,286047007.0,Y
1459637775.2,286047001.5,P
1459637795.1,286047002.7,N
1459637796.0,286047002.7,N
1459637815.8,286046998.4,N
1459637835.6,286046995.3,N
1459637855.5,286046998.3,N
1459637875.3,286047002.2,N
1459637895.1,286047004.4,N
1459637915.9,286047001.8,N
1459637935.7,286047004.0,N
1459637955.5,286047004.0,N
1459637975.3,286047001.5,N
1459637995.2,286047003.5,N
